Overview Statistics Trail Chart Weather Telemetry Raw packets
 

This is the latest recevied weather packets stored in our database for station/object 4S6DRJ-13. If no packets are shown the sender has not sent any weather packets the latest 10 day(s).

<< 455 456 457 458 459 460 461 >>
Time Temp. Humidity Pressure Rain* Wind** Luminosity Snow
1787762885 25.56° C 93% 1012 hPa 0.25 mm 0 m/s 0 W/m² -
1787762824 25.56° C 93% 1012.2 hPa 0.25 mm 0 m/s 0 W/m² -
1787762763 25.56° C 93% 1012 hPa 0.25 mm 0.45 m/s, 99° 0 W/m² -
1787762702 25.56° C 93% 1012 hPa 0.25 mm 0.45 m/s, 113° 0 W/m² -
1787762641 25.56° C 93% 1011.8 hPa 0.25 mm 0.45 m/s, 115° 0 W/m² -
1787762580 25.56° C 93% 1012.1 hPa 0.25 mm 0.89 m/s, 158° 0 W/m² -
1787762519 25.56° C 93% 1012 hPa 0.25 mm 0.89 m/s, 190° 0 W/m² -
1787762458 25.56° C 93% 1012 hPa 0.25 mm 0 m/s 0 W/m² -
1787762397 25.56° C 93% 1011.9 hPa 0.25 mm 0 m/s 0 W/m² -
1787762336 25.56° C 93% 1012 hPa 0.25 mm 0.89 m/s, 137° 0 W/m² -
1787762275 25.56° C 93% 1011.9 hPa 0.25 mm 1.34 m/s, 136° 0 W/m² -
1787762214 25.56° C 93% 1012.1 hPa 0.25 mm 0.89 m/s, 173° 0 W/m² -
1787762153 25.56° C 92% 1012.2 hPa 0.25 mm 0.89 m/s, 140° 0 W/m² -
1787762092 25.56° C 92% 1011.9 hPa 0.25 mm 0.45 m/s, 108° 0 W/m² -
1787762031 25.56° C 92% 1012.2 hPa 0.25 mm 0.45 m/s, 121° 0 W/m² -
1787761970 25.56° C 92% 1012.1 hPa 0.25 mm 1.34 m/s, 129° 0 W/m² -
1787761910 25.56° C 92% 1012.1 hPa 0 mm 1.34 m/s, 93° 0 W/m² -
1787761848 25.56° C 92% 1012 hPa 0 mm 1.34 m/s, 137° 0 W/m² -
1787761787 25.56° C 92% 1012 hPa 0 mm 0.45 m/s, 105° 0 W/m² -
1787761726 25.56° C 92% 1011.9 hPa 0 mm 1.34 m/s, 130° 0 W/m² -
1787761665 25.56° C 92% 1011.9 hPa 0 mm 1.34 m/s, 141° 0 W/m² -
1787761605 25.56° C 92% 1012.1 hPa 0 mm 1.79 m/s, 117° 0 W/m² -
1787761543 25.56° C 92% 1012 hPa 0 mm 0.89 m/s, 117° 0 W/m² -
1787761487 26.11° C 92% 1011.8 hPa 0 mm 0.89 m/s, 103° 0 W/m² -
1787761421 26.11° C 92% 1012 hPa 0 mm 1.79 m/s, 138° 0 W/m² -

* Rain latest hour (hover to see other rain measurements)
** Current wind speed in m/s (hover to see current wind gust speed)